Location: Campillo
(40.8621°N, 4.2488°W)
Time: 12:47:30
(UTC+00:00)

Cosmos 2154 Rocket - Pass Details

Date: 01 October 2021
Orbit: 965 x 997 km, 82.9° (Epoch: 15 October)

Event Time Altitude Azimuth Distance (km) Brightness Sun altitude
Rises 18:16:13 0° 175° (S) 3,700 7.0 -4.1°
Reaches altitude 10° 18:18:45 10° 172° (S) 2,755 6.3 -4.6°
Maximum altitude 18:24:59 63° 93° (E) 1,105 4.1 -5.8°
Drops below altitude 10° 18:31:14 10° 14° (NNE) 2,765 6.3 -7.0°
Sets 18:33:47 0° 11° (NNE) 3,715 6.9 -7.4°
